Location: Tauranga
(37.6860°S, 176.1670°E)
Time: 07:43:36
(UTC+12:00)

ISS - Visible Passes

Search period start: 29 May 2023 00:00
Search period end: 08 June 2023 00:00
Orbit: 412 x 419 km, 51.6° (Epoch: 28 May)

Date Brightness Start Highest point End Pass type
(mag) Time Alt. Az. Time Alt. Az. Time Alt. Az.
02 Jun -1.3 06:22:04 10° SSW 06:24:13 15° SSE 06:26:21 10° ESE visible
03 Jun -1.1 05:34:58 12° SSE 05:35:15 12° SSE 05:36:38 10° SE visible
04 Jun -2.2 06:21:10 12° SSW 06:23:50 29° SSE 06:26:51 10° E visible
05 Jun -1.7 05:34:30 19° SSE 05:34:55 20° SSE 05:37:31 10° ESE visible
06 Jun -0.4 04:47:51 10° ESE 04:47:51 10° ESE 04:47:57 10° ESE visible
06 Jun -3.7 06:20:44 18° SW 06:23:08 76° SE 06:26:32 10° NE visible
07 Jun -2.9 05:34:08 42° SSE 05:34:18 42° SE 05:37:33 10° ENE visible
